User: anonymous   Login
Location: Goettingen
(51.5300°N, 9.9433°E)
Time: 05:58:21
(UTC+02:00)
Language:

Hubble Space Telescope - Orbit

View from above orbital plane
View from above orbital plane
View from above satellite
View from above satellite

Ground track
Ground track

The orbit data is extracted from the following two-line orbital elements,

1 20580U 90037B   24106.89656719  .00008963  00000-0  43514-3 0  9994
2 20580  28.4693  42.1843 0002593  76.9923 283.0959 15.16725948667829
Epoch (UTC): 15 April 2024 21:31:03
Eccentricity: 0.0002593
inclination: 28.4693°
perigee height: 514 km
apogee height: 517 km
right ascension of ascending node: 42.1843°
argument of perigee: 76.9923°
revolutions per day: 15.16725948
mean anomaly at epoch: 283.0959°
orbit number at epoch: 66782

The dashed part of the orbit path shows where the satellite is in the earth's shadow,  

DLR